Regional Weather Roundup
Issued by NWS

Home | Current Version | Previous Version | Graphics & Text | Print | Product List | Glossary On
Versions: 1 2 3 4 5 6 7 8 9 10 11 12 13 14 15 16 17 18 19 20 21 22 23 24 25 26 27
000
ASUS45 KBOU 211107
RWRCO

WEATHER ROUNDUP FOR COLORADO
NATIONAL WEATHER SERVICE DENVER/BOULDER CO
500 AM MDT MON AUG 21 2017

NOTE: "FAIR" INDICATES FEW OR NO CLOUDS BELOW 12000 FEET WITH NO
SIGNIFICANT WEATHER AND/OR OBSTRUCTIONS TO VISIBILITY.

COZ001>005-013-030-031-211200-
...NORTHWEST COLORADO...

CITY           SKY/WX    TMP DP  RH WIND       PRES   REMARKS
CRAIG          FAIR      44  38  79 CALM      30.24R
HAYDEN         FAIR      52  40  63 E9        30.27R
MEEKER         FAIR      57  41  55 SE3       30.24S
RABBIT EARS PA FAIR      52  34  50 W3        30.52F
STEAMBOAT SPGS FAIR      46  39  77 CALM      30.27S
WALDEN         FAIR      39  32  75 E3        30.37S
$$

COZ006>008-011-211200-
...WEST CENTRAL VALLEYS...

CITY           SKY/WX    TMP DP  RH WIND       PRES   REMARKS
GRAND JUNCTION FAIR      67  37  33 E7        30.10R
MONTROSE       FAIR      64  41  42 SE7       30.20R
EAGLE          FAIR      53  37  54 SE6       30.29S
RIFLE          FAIR      58  38  47 E5        30.17S
DELTA          FAIR      66  37  34 E7        30.15S
NUCLA          FAIR      61  39  44 E8        30.25S
$$

COZ017>023-064>068-211200-
...SOUTHWEST COLORADO...

CITY           SKY/WX    TMP DP  RH WIND       PRES   REMARKS
DURANGO        FAIR      55  45  68 SE5       30.27S
CORTEZ         FAIR      59  51  75 CALM      30.22S
PAGOSA SPRINGS MOCLDY    49  41  72 NE5       30.35S
TELLURIDE      FAIR      53  38  55 CALM      30.45R
WOLF CREEK PAS MOCLDY    45  34  65 CALM      30.64F
$$

COZ009-010-012-014-032>034-037-058>063-211200-
...CENTRAL COLORADO...

CITY           SKY/WX    TMP DP  RH WIND       PRES   REMARKS
ASPEN          FAIR      52  38  58 S5        30.32S
BUENA VISTA    FAIR      55  40  57 N8        30.34F
COPPER MTN     FAIR      52  32  46 W8        30.62S
BERTHOUD PASS  FAIR      43  37  81 NW15      30.65S
COTTONWOOD PAS FAIR      59  32  36 SW15      30.45F
GUNNISON       FAIR      49  41  74 CALM      30.35R
KREMMLING      FAIR      46  37  71 CALM      30.35R
LEADVILLE      FAIR      40  35  83 NE7       30.47F
MONARCH PASS   FAIR      46  34  61 W16       30.70F
SALIDA         FAIR      60  43  52 NW9       30.39S
SUNLIGHT       FAIR      52  30  43 S5        30.56F
WILKERSON PASS FAIR      48  34  57 W7        30.58S
$$

COZ069>075-211200-
...SAN LUIS VALLEY/SANGRE DE CRISTO MOUNTAINS...

CITY           SKY/WX    TMP DP  RH WIND       PRES   REMARKS
ALAMOSA        FAIR      50  44  80 W3        30.30F
DEL NORTE      FAIR      53  40  62 W3        30.34S
LA VETA PASS   NOT AVBL
SAGUACHE       FAIR      52  39  62 N10       30.33S
$$

COZ035-036-038>040-211200-
...NORTHERN COLORADO FRONT RANGE...

CITY           SKY/WX    TMP DP  RH WIND       PRES   REMARKS
DENVER INTL AP MOCLDY    66  44  45 SW10      30.09F
DMNS CITY PARK   N/A     67  44  44 SE10      30.10S
AURORA         MOCLDY    62  44  51 S9        30.12S
FRONT RANGE AP FAIR      68  45  42 SW10G18   30.11S
ERIE MUNI ARPT FAIR      55  45  70 CALM      30.14S
BOULDER MUN AP FAIR      63  45  51 E3        30.10R
CENTENNIAL     FAIR      64  44  48 CALM      30.13S
BROOMFIELD     NOT AVBL
FORT COLLINS   FAIR      55  48  77 N5        30.09S
LONGMONT       NOT AVBL
$$

COZ041-046-047-076>085-087-088-211200-
...PIKES PEAK/PALMER DIVIDE AND SOUTHERN FOOTHILLS...

CITY           SKY/WX    TMP DP  RH WIND       PRES   REMARKS
COLO. SPRINGS  FAIR      66  44  45 N9        30.16F
A. F. ACADEMY  FAIR      66  41  39 CALM      30.18F
SCHRIEVER AFB  FAIR      66  40  38 NW12      30.16S
CHEYENNE MTN   FAIR      65  39  37 W3        30.16S
ELLICOTT       NOT AVBL
FALCON         FAIR      64  39  38 NW13G18   30.22S
FORT CARSON    FAIR      62  44  52 NW12      30.12S
LIMON          FAIR      56  47  71 N5        30.10S
MONUMENT HILL  FAIR      57  41  54 SW9       30.24S
CANON CITY     CLEAR     70  46  43 W15       30.11S
WALSENBURG     FAIR      63  45  51 SW7       30.17S
TRINIDAD       FAIR      65  50  58 W14       30.16F
$$

COZ042>045-048>051-090-091-211200-
...NORTHEAST COLORADO...

CITY           SKY/WX    TMP DP  RH WIND       PRES   REMARKS
GREELEY ARPT   FAIR      58  55  90 N8        30.07S
AKRON          FAIR      63  47  55 W12       30.04S
BURLINGTON     FAIR      62  60  93 W5        30.03R
WRAY           NOT AVBL
YUMA           FAIR      59  48  67 W7        30.00S
STERLING       FAIR      61  61 100 N5        30.00S
HOLYOKE        FAIR      61  59  94 CALM      29.98F
FORT MORGAN    FAIR      58  52  79 W6        30.04F
$$

COZ086-089-092>099-211200-
...SOUTHEAST COLORADO...

CITY           SKY/WX    TMP DP  RH WIND       PRES   REMARKS
PUEBLO         FAIR      63  48  58 W5        30.06R
LA JUNTA       FAIR      69  51  52 SW13      30.03F
LAMAR          FAIR      70  57  63 SW10      29.99S
SPRINGFIELD      N/A     65  59  81 SW7       30.08F
$$




USA.gov is the U.S. government's official web portal to all federal, state and local government web resources and services.